Time,TemperatureF,DewpointF,PressureIn,WindDirection,WindDirectionDegrees,WindSpeedMPH,WindSpeedGustMPH,Humidity,HourlyPrecipIn,Conditions,Clouds,dailyrainin,SoftwareType,DateUTC
2013-03-18 00:02:00,45.9,45.3,29.53,North,0,14.4,14.4,98,0.00,,---,0.00,VWS V14.00,2013-03-18 05:02:00,
2013-03-18 00:08:00,45.5,45.0,29.53,WNW,292,6.9,6.9,98,0.00,,---,0.00,VWS V14.00,2013-03-18 05:08:00,
2013-03-18 00:13:00,45.3,44.8,29.53,NNE,22,10.8,10.8,98,0.00,,---,0.00,VWS V14.00,2013-03-18 05:13:00,
2013-03-18 00:19:00,45.0,44.4,29.50,North,0,7.7,7.7,98,0.00,,---,0.00,VWS V14.00,2013-03-18 05:19:00,
2013-03-18 00:25:00,44.8,44.2,29.50,West,270,6.3,6.3,98,0.00,,---,0.00,VWS V14.00,2013-03-18 05:25:00,
2013-03-18 00:30:00,44.8,44.2,29.50,ENE,68,8.3,8.3,98,0.00,,---,0.00,VWS V14.00,2013-03-18 05:30:00,
2013-03-18 00:36:00,44.6,44.1,29.50,NW,315,8.3,8.7,98,0.00,,---,0.00,VWS V14.00,2013-03-18 05:36:00,
2013-03-18 00:42:00,44.6,44.1,29.50,North,0,7.7,7.7,98,0.00,,---,0.00,VWS V14.00,2013-03-18 05:42:00,
2013-03-18 00:47:00,44.6,44.1,29.53,NNE,22,6.0,6.0,98,0.00,,---,0.00,VWS V14.00,2013-03-18 05:47:00,
2013-03-18 00:53:00,44.6,44.1,29.53,North,0,7.7,7.7,98,0.00,,---,0.00,VWS V14.00,2013-03-18 05:53:00,
2013-03-18 00:58:00,44.4,43.9,29.53,NNE,22,7.2,7.2,98,0.00,,---,0.00,VWS V14.00,2013-03-18 05:58:00,
2013-03-18 01:04:00,44.4,43.9,29.50,North,0,8.6,8.6,98,0.00,,---,0.00,VWS V14.00,2013-03-18 06:04:00,
2013-03-18 01:10:00,44.2,43.7,29.50,ESE,112,8.6,8.6,98,0.00,,---,0.00,VWS V14.00,2013-03-18 06:10:00,
2013-03-18 01:16:00,44.1,43.5,29.50,NW,315,4.9,4.9,98,0.00,,---,0.00,VWS V14.00,2013-03-18 06:16:00,
2013-03-18 01:22:00,44.1,43.5,29.50,North,0,10.8,10.8,98,0.00,,---,0.00,VWS V14.00,2013-03-18 06:22:00,
2013-03-18 01:28:00,44.1,43.5,29.50,NNW,338,5.2,5.2,98,0.00,,---,0.00,VWS V14.00,2013-03-18 06:28:00,
2013-03-18 01:33:00,44.1,43.5,29.50,North,0,8.3,8.3,98,0.00,,---,0.00,VWS V14.00,2013-03-18 06:33:00,
2013-03-18 01:39:00,44.1,43.5,29.50,NE,45,8.8,8.8,98,0.00,,---,0.00,VWS V14.00,2013-03-18 06:39:00,
2013-03-18 01:44:00,43.9,43.3,29.50,NW,315,6.6,7.6,98,0.00,,---,0.00,VWS V14.00,2013-03-18 06:44:00,
2013-03-18 01:50:00,43.9,43.3,29.50,North,0,5.5,5.5,98,0.00,,---,0.00,VWS V14.00,2013-03-18 06:50:00,
2013-03-18 01:56:00,43.7,43.2,29.50,NNE,22,5.8,5.8,98,0.00,,---,0.00,VWS V14.00,2013-03-18 06:56:00,
2013-03-18 02:02:00,43.7,43.2,29.50,NNE,22,10.2,10.2,98,0.00,,---,0.00,VWS V14.00,2013-03-18 07:02:00,
2013-03-18 02:08:00,43.7,43.2,29.50,North,0,5.8,5.8,98,0.00,,---,0.00,VWS V14.00,2013-03-18 07:08:00,
2013-03-18 02:13:00,43.7,43.2,29.50,North,0,5.2,5.2,98,0.00,,---,0.00,VWS V14.00,2013-03-18 07:13:00,
2013-03-18 02:18:00,43.7,43.2,29.50,NNE,22,4.1,4.1,98,0.00,,---,0.00,VWS V14.00,2013-03-18 07:18:00,
2013-03-18 02:24:00,43.7,43.2,29.50,North,0,4.6,4.6,98,0.00,,---,0.00,VWS V14.00,2013-03-18 07:24:00,
2013-03-18 02:29:00,43.7,43.2,29.50,North,0,4.4,4.4,98,0.00,,---,0.00,VWS V14.00,2013-03-18 07:29:00,
2013-03-18 02:34:00,43.7,43.2,29.53,NNW,338,5.2,5.2,98,0.00,,---,0.00,VWS V14.00,2013-03-18 07:34:00,
2013-03-18 02:39:00,43.5,43.0,29.53,WNW,292,4.9,5.6,98,0.00,,---,0.00,VWS V14.00,2013-03-18 07:39:00,
2013-03-18 02:45:00,43.5,43.0,29.53,North,0,2.7,2.7,98,0.00,,---,0.00,VWS V14.00,2013-03-18 07:45:00,
2013-03-18 02:50:00,43.7,43.2,29.53,North,0,3.0,3.8,98,0.00,,---,0.00,VWS V14.00,2013-03-18 07:50:00,
2013-03-18 02:55:00,43.7,43.2,29.53,East,90,4.9,4.9,98,0.00,,---,0.00,VWS V14.00,2013-03-18 07:55:00,
2013-03-18 03:00:00,43.7,43.2,29.50,North,0,6.0,6.0,98,0.00,,---,0.00,VWS V14.00,2013-03-18 08:00:00,
2013-03-18 03:06:00,43.5,43.0,29.50,North,0,6.0,6.0,98,0.00,,---,0.00,VWS V14.00,2013-03-18 08:06:00,
2013-03-18 03:11:00,43.5,43.0,29.50,NNE,22,9.1,9.1,98,0.00,,---,0.00,VWS V14.00,2013-03-18 08:11:00,
2013-03-18 03:17:00,43.5,43.0,29.50,North,0,8.8,8.8,98,0.00,,---,0.00,VWS V14.00,2013-03-18 08:17:00,
2013-03-18 03:23:00,43.3,42.8,29.50,North,0,5.8,6.0,98,0.04,,---,0.04,VWS V14.00,2013-03-18 08:23:00,
2013-03-18 03:28:00,43.3,42.8,29.50,North,0,7.2,7.2,98,0.04,,---,0.04,VWS V14.00,2013-03-18 08:28:00,
2013-03-18 03:33:00,43.3,42.8,29.53,North,0,5.5,6.3,98,0.04,,---,0.04,VWS V14.00,2013-03-18 08:33:00,
2013-03-18 03:39:00,43.3,42.8,29.53,North,0,1.0,1.1,98,0.04,,---,0.04,VWS V14.00,2013-03-18 08:39:00,
2013-03-18 03:45:00,43.3,42.8,29.53,North,0,2.1,2.1,98,0.04,,---,0.04,VWS V14.00,2013-03-18 08:45:00,
2013-03-18 03:51:00,43.3,42.8,29.50,North,0,5.5,5.5,98,0.04,,---,0.04,VWS V14.00,2013-03-18 08:51:00,
2013-03-18 03:56:00,43.3,42.8,29.50,WNW,292,1.0,2.0,98,0.04,,---,0.04,VWS V14.00,2013-03-18 08:56:00,
2013-03-18 04:02:00,43.3,42.8,29.50,ESE,112,1.0,1.1,98,0.04,,---,0.04,VWS V14.00,2013-03-18 09:02:00,
2013-03-18 04:07:00,43.3,42.8,29.50,ESE,112,3.8,3.8,98,0.04,,---,0.04,VWS V14.00,2013-03-18 09:07:00,
2013-03-18 04:13:00,43.5,43.0,29.50,ESE,112,1.0,1.3,98,0.04,,---,0.04,VWS V14.00,2013-03-18 09:13:00,
2013-03-18 04:19:00,43.5,43.0,29.50,East,90,1.0,0.0,98,0.00,,---,0.04,VWS V14.00,2013-03-18 09:19:00,
2013-03-18 04:25:00,43.5,43.0,29.50,SE,135,4.9,4.9,98,0.00,,---,0.04,VWS V14.00,2013-03-18 09:25:00,
2013-03-18 04:31:00,43.7,43.2,29.50,ESE,112,4.6,4.6,98,0.00,,---,0.04,VWS V14.00,2013-03-18 09:31:00,
2013-03-18 04:36:00,43.7,43.2,29.50,East,90,1.0,1.0,98,0.00,,---,0.04,VWS V14.00,2013-03-18 09:36:00,
2013-03-18 04:42:00,43.7,43.2,29.50,NNW,338,1.0,0.0,98,0.00,,---,0.04,VWS V14.00,2013-03-18 09:42:00,
2013-03-18 04:48:00,43.7,43.2,29.50,NNW,338,1.0,0.0,98,0.00,,---,0.04,VWS V14.00,2013-03-18 09:48:00,
2013-03-18 04:54:00,43.9,43.3,29.50,SE,135,2.4,2.4,98,0.00,,---,0.04,VWS V14.00,2013-03-18 09:54:00,
2013-03-18 04:59:00,43.9,43.3,29.50,SE,135,1.0,0.0,98,0.00,,---,0.04,VWS V14.00,2013-03-18 09:59:00,
2013-03-18 05:04:00,43.9,43.3,29.50,NW,315,1.0,0.0,98,0.00,,---,0.04,VWS V14.00,2013-03-18 10:04:00,
2013-03-18 05:10:00,43.9,43.3,29.50,NW,315,3.0,3.0,98,0.00,,---,0.04,VWS V14.00,2013-03-18 10:10:00,
2013-03-18 05:15:00,44.1,43.5,29.50,SE,135,3.0,3.0,98,0.00,,---,0.04,VWS V14.00,2013-03-18 10:15:00,
2013-03-18 05:20:00,44.1,43.5,29.50,SW,225,1.0,1.6,98,0.00,,---,0.04,VWS V14.00,2013-03-18 10:20:00,
2013-03-18 05:26:00,44.1,43.5,29.50,West,270,2.7,2.7,98,0.00,,---,0.04,VWS V14.00,2013-03-18 10:26:00,
2013-03-18 05:31:00,44.2,43.7,29.50,NW,315,2.7,3.8,98,0.00,,---,0.04,VWS V14.00,2013-03-18 10:31:00,
2013-03-18 05:37:00,44.1,43.5,29.50,WSW,248,2.1,2.7,98,0.00,,---,0.04,VWS V14.00,2013-03-18 10:37:00,
2013-03-18 05:42:00,44.1,43.5,29.50,West,270,4.4,4.4,98,0.00,,---,0.04,VWS V14.00,2013-03-18 10:42:00,
2013-03-18 05:47:00,44.1,43.5,29.53,West,270,4.1,4.3,98,0.00,,---,0.04,VWS V14.00,2013-03-18 10:47:00,
2013-03-18 05:52:00,44.1,43.5,29.53,WNW,292,4.9,4.9,98,0.00,,---,0.04,VWS V14.00,2013-03-18 10:52:00,
2013-03-18 05:57:00,44.2,43.7,29.53,West,270,5.5,6.5,98,0.00,,---,0.04,VWS V14.00,2013-03-18 10:57:00,
2013-03-18 06:02:00,44.2,43.7,29.56,WNW,292,8.3,8.3,98,0.00,,---,0.04,VWS V14.00,2013-03-18 11:02:00,
2013-03-18 06:08:00,44.2,43.7,29.56,NW,315,5.2,6.5,98,0.00,,---,0.04,VWS V14.00,2013-03-18 11:08:00,
2013-03-18 06:13:00,44.4,43.9,29.56,WNW,292,5.8,5.8,98,0.00,,---,0.04,VWS V14.00,2013-03-18 11:13:00,
2013-03-18 06:19:00,44.4,43.9,29.53,WSW,248,4.9,4.9,98,0.00,,---,0.04,VWS V14.00,2013-03-18 11:19:00,
2013-03-18 06:25:00,44.4,43.9,29.53,West,270,4.6,4.6,98,0.00,,---,0.04,VWS V14.00,2013-03-18 11:25:00,
2013-03-18 06:30:00,44.2,43.7,29.53,WNW,292,4.6,4.6,98,0.00,,---,0.04,VWS V14.00,2013-03-18 11:30:00,
2013-03-18 06:36:00,44.1,43.5,29.53,NW,315,5.5,5.5,98,0.00,,---,0.04,VWS V14.00,2013-03-18 11:36:00,
2013-03-18 06:41:00,43.9,43.3,29.53,West,270,4.1,4.1,98,0.00,,---,0.04,VWS V14.00,2013-03-18 11:41:00,
2013-03-18 06:46:00,43.7,43.2,29.53,West,270,3.8,3.8,98,0.00,,---,0.04,VWS V14.00,2013-03-18 11:46:00,
2013-03-18 06:51:00,43.5,43.0,29.53,West,270,2.1,4.0,98,0.00,,---,0.04,VWS V14.00,2013-03-18 11:51:00,
2013-03-18 06:57:00,43.3,42.8,29.53,WSW,248,4.9,4.9,98,0.00,,---,0.04,VWS V14.00,2013-03-18 11:57:00,
2013-03-18 07:02:00,43.2,42.4,29.53,West,270,5.2,5.2,97,0.00,,---,0.04,VWS V14.00,2013-03-18 12:02:00,
2013-03-18 07:07:00,43.0,42.2,29.53,NW,315,4.6,4.6,97,0.00,,---,0.04,VWS V14.00,2013-03-18 12:07:00,
2013-03-18 07:12:00,43.0,42.2,29.53,NW,315,3.8,3.8,97,0.00,,---,0.04,VWS V14.00,2013-03-18 12:12:00,
2013-03-18 07:18:00,42.8,42.0,29.53,West,270,2.1,2.1,97,0.00,,---,0.04,VWS V14.00,2013-03-18 12:18:00,
2013-03-18 07:23:00,42.4,41.9,29.53,WSW,248,2.7,2.7,98,0.00,,---,0.04,VWS V14.00,2013-03-18 12:23:00,
2013-03-18 07:29:00,42.3,41.7,29.53,WSW,248,1.0,2.0,98,0.00,,---,0.04,VWS V14.00,2013-03-18 12:29:00,
2013-03-18 07:34:00,42.3,41.7,29.53,WSW,248,2.1,2.1,98,0.00,,---,0.04,VWS V14.00,2013-03-18 12:34:00,
2013-03-18 07:40:00,42.3,41.7,29.53,NW,315,1.0,0.0,98,0.00,,---,0.04,VWS V14.00,2013-03-18 12:40:00,
2013-03-18 07:45:00,42.4,41.9,29.53,SSW,202,1.0,0.0,98,0.00,,---,0.04,VWS V14.00,2013-03-18 12:45:00,
2013-03-18 07:51:00,43.0,42.5,29.53,West,270,3.5,3.5,98,0.00,,---,0.04,VWS V14.00,2013-03-18 12:51:00,
2013-03-18 07:56:00,43.5,43.0,29.53,SSW,202,3.0,3.0,98,0.00,,---,0.04,VWS V14.00,2013-03-18 12:56:00,
2013-03-18 08:01:00,44.2,43.7,29.53,West,270,5.5,5.5,98,0.00,,---,0.04,VWS V14.00,2013-03-18 13:01:00,
2013-03-18 08:07:00,44.8,44.2,29.53,WSW,248,1.0,1.6,98,0.00,,---,0.04,VWS V14.00,2013-03-18 13:07:00,
2013-03-18 08:12:00,44.8,44.2,29.53,SSE,158,2.7,2.7,98,0.00,,---,0.04,VWS V14.00,2013-03-18 13:12:00,
2013-03-18 08:17:00,45.0,44.4,29.53,WNW,292,5.8,5.8,98,0.00,,---,0.04,VWS V14.00,2013-03-18 13:17:00,
2013-03-18 08:22:00,45.0,44.4,29.53,NW,315,4.4,4.4,98,0.00,,---,0.04,VWS V14.00,2013-03-18 13:22:00,
2013-03-18 08:28:00,45.1,44.6,29.53,WNW,292,2.1,2.5,98,0.00,,---,0.04,VWS V14.00,2013-03-18 13:28:00,
2013-03-18 08:33:00,45.3,44.8,29.56,West,270,1.0,2.2,98,0.00,,---,0.04,VWS V14.00,2013-03-18 13:33:00,
2013-03-18 08:39:00,45.7,45.2,29.56,NW,315,3.0,3.0,98,0.00,,---,0.04,VWS V14.00,2013-03-18 13:39:00,
2013-03-18 08:45:00,46.0,45.5,29.56,West,270,3.5,3.5,98,0.00,,---,0.04,VWS V14.00,2013-03-18 13:45:00,
2013-03-18 08:50:00,46.4,45.9,29.56,WSW,248,3.0,3.4,98,0.00,,---,0.04,VWS V14.00,2013-03-18 13:50:00,
2013-03-18 08:56:00,46.9,46.4,29.56,WSW,248,4.6,4.6,98,0.00,,---,0.04,VWS V14.00,2013-03-18 13:56:00,
2013-03-18 09:01:00,47.5,47.0,29.56,WNW,292,9.1,9.1,98,0.00,,---,0.04,VWS V14.00,2013-03-18 14:01:00,
2013-03-18 09:07:00,48.4,47.8,29.56,NW,315,4.6,7.4,98,0.00,,---,0.04,VWS V14.00,2013-03-18 14:07:00,
2013-03-18 09:12:00,48.9,48.4,29.56,NW,315,5.8,5.8,98,0.00,,---,0.04,VWS V14.00,2013-03-18 14:12:00,
2013-03-18 09:17:00,49.3,48.7,29.56,NW,315,2.4,2.4,98,0.00,,---,0.04,VWS V14.00,2013-03-18 14:17:00,
2013-03-18 09:22:00,50.0,49.5,29.56,WNW,292,10.2,10.2,98,0.00,,---,0.04,VWS V14.00,2013-03-18 14:22:00,
2013-03-18 09:29:00,50.2,49.6,29.56,NNE,22,8.8,9.4,98,0.00,,---,0.04,VWS V14.00,2013-03-18 14:29:00,
2013-03-18 09:34:00,50.2,49.6,29.56,NNW,338,9.4,11.0,98,0.00,,---,0.04,VWS V14.00,2013-03-18 14:34:00,
2013-03-18 09:39:00,50.2,49.4,29.56,NNW,338,8.6,8.6,97,0.00,,---,0.04,VWS V14.00,2013-03-18 14:39:00,
2013-03-18 09:45:00,50.2,48.8,29.56,WNW,292,9.1,9.1,95,0.00,,---,0.04,VWS V14.00,2013-03-18 14:45:00,
2013-03-18 09:50:00,50.4,48.1,29.56,West,270,8.0,8.1,92,0.00,,---,0.04,VWS V14.00,2013-03-18 14:50:00,
2013-03-18 09:56:00,50.4,47.5,29.56,WNW,292,8.8,9.6,90,0.00,,---,0.04,VWS V14.00,2013-03-18 14:56:00,
2013-03-18 10:02:00,50.7,47.9,29.59,North,0,5.5,6.0,90,0.00,,---,0.04,VWS V14.00,2013-03-18 15:02:00,
2013-03-18 10:07:00,50.7,47.6,29.59,NNE,22,10.0,10.3,89,0.00,,---,0.04,VWS V14.00,2013-03-18 15:07:00,
2013-03-18 10:13:00,50.9,47.2,29.59,WNW,292,10.2,10.5,87,0.00,,---,0.04,VWS V14.00,2013-03-18 15:13:00,
2013-03-18 10:18:00,51.1,46.7,29.59,NNE,22,6.3,6.3,85,0.00,,---,0.04,VWS V14.00,2013-03-18 15:18:00,
2013-03-18 10:24:00,52.0,47.9,29.59,NNW,338,8.6,8.6,86,0.00,,---,0.04,VWS V14.00,2013-03-18 15:24:00,
2013-03-18 10:29:00,52.2,47.2,29.59,NNW,338,14.4,14.4,83,0.00,,---,0.04,VWS V14.00,2013-03-18 15:29:00,
2013-03-18 10:35:00,52.2,46.8,29.59,WNW,292,14.7,14.7,82,0.00,,---,0.04,VWS V14.00,2013-03-18 15:35:00,
2013-03-18 10:40:00,52.5,47.2,29.59,NW,315,11.6,11.6,82,0.00,,---,0.04,VWS V14.00,2013-03-18 15:40:00,
2013-03-18 10:46:00,53.2,46.9,29.62,NNW,338,8.3,9.8,79,0.00,,---,0.04,VWS V14.00,2013-03-18 15:46:00,
2013-03-18 10:52:00,53.4,46.7,29.62,WSW,248,7.7,7.8,78,0.00,,---,0.04,VWS V14.00,2013-03-18 15:52:00,
2013-03-18 10:57:00,52.9,44.8,29.62,WNW,292,8.3,8.3,74,0.00,,---,0.04,VWS V14.00,2013-03-18 15:57:00,
2013-03-18 11:03:00,52.0,44.0,29.62,NW,315,8.6,11.0,74,0.00,,---,0.04,VWS V14.00,2013-03-18 16:03:00,
2013-03-18 11:08:00,51.4,43.4,29.62,NE,45,8.0,8.0,74,0.00,,---,0.04,VWS V14.00,2013-03-18 16:08:00,
2013-03-18 11:14:00,50.9,43.3,29.62,NNW,338,5.5,6.5,75,0.00,,---,0.04,VWS V14.00,2013-03-18 16:14:00,
2013-03-18 11:20:00,50.7,43.8,29.62,NNW,338,5.2,5.2,77,0.00,,---,0.04,VWS V14.00,2013-03-18 16:20:00,
2013-03-18 11:26:00,50.7,44.1,29.62,NW,315,6.9,6.9,78,0.00,,---,0.04,VWS V14.00,2013-03-18 16:26:00,
2013-03-18 11:32:00,50.5,44.3,29.62,NNW,338,4.1,4.1,79,0.00,,---,0.04,VWS V14.00,2013-03-18 16:32:00,
2013-03-18 11:37:00,50.4,43.8,29.62,North,0,6.3,8.5,78,0.00,,---,0.04,VWS V14.00,2013-03-18 16:37:00,
2013-03-18 11:42:00,50.2,43.9,29.62,NNE,22,11.9,11.9,79,0.00,,---,0.04,VWS V14.00,2013-03-18 16:42:00,
2013-03-18 11:48:00,50.0,43.8,29.62,NW,315,6.0,6.0,79,0.00,,---,0.04,VWS V14.00,2013-03-18 16:48:00,
2013-03-18 11:54:00,50.4,44.4,29.62,NW,315,5.8,5.8,80,0.00,,---,0.04,VWS V14.00,2013-03-18 16:54:00,
2013-03-18 11:59:00,50.5,44.6,29.62,West,270,6.3,6.3,80,0.00,,---,0.04,VWS V14.00,2013-03-18 16:59:00,
2013-03-18 12:05:00,50.5,44.3,29.62,NNW,338,8.3,8.3,79,0.00,,---,0.04,VWS V14.00,2013-03-18 17:05:00,
2013-03-18 12:10:00,50.5,44.3,29.62,NW,315,5.2,5.2,79,0.00,,---,0.04,VWS V14.00,2013-03-18 17:10:00,
2013-03-18 12:15:00,50.5,44.3,29.62,NW,315,7.2,7.2,79,0.00,,---,0.04,VWS V14.00,2013-03-18 17:15:00,
2013-03-18 12:20:00,50.7,44.5,29.59,North,0,6.0,6.7,79,0.00,,---,0.04,VWS V14.00,2013-03-18 17:20:00,
2013-03-18 12:26:00,50.9,44.3,29.59,North,0,6.0,6.0,78,0.00,,---,0.04,VWS V14.00,2013-03-18 17:26:00,
2013-03-18 12:31:00,51.3,45.0,29.59,North,0,5.2,5.2,79,0.00,,---,0.04,VWS V14.00,2013-03-18 17:31:00,
2013-03-18 12:36:00,52.2,45.8,29.59,NNW,338,2.7,2.7,79,0.00,,---,0.04,VWS V14.00,2013-03-18 17:36:00,
2013-03-18 12:41:00,52.0,45.0,29.59,North,0,8.3,8.3,77,0.00,,---,0.04,VWS V14.00,2013-03-18 17:41:00,
2013-03-18 12:47:00,51.6,44.0,29.59,NNE,22,7.2,7.2,75,0.00,,---,0.04,VWS V14.00,2013-03-18 17:47:00,
2013-03-18 12:52:00,51.8,44.1,29.59,North,0,4.9,4.9,75,0.00,,---,0.04,VWS V14.00,2013-03-18 17:52:00,
2013-03-18 12:57:00,52.2,44.5,29.59,North,0,4.9,4.9,75,0.00,,---,0.04,VWS V14.00,2013-03-18 17:57:00,
2013-03-18 13:02:00,52.7,45.0,29.59,WNW,292,3.5,3.5,75,0.00,,---,0.04,VWS V14.00,2013-03-18 18:02:00,
2013-03-18 13:08:00,53.1,45.4,29.59,NW,315,4.6,4.6,75,0.00,,---,0.04,VWS V14.00,2013-03-18 18:08:00,
2013-03-18 13:13:00,52.9,44.5,29.59,NNW,338,6.3,6.3,73,0.00,,---,0.04,VWS V14.00,2013-03-18 18:13:00,
2013-03-18 13:18:00,52.7,43.9,29.62,WNW,292,10.0,10.0,72,0.00,,---,0.04,VWS V14.00,2013-03-18 18:18:00,
2013-03-18 13:23:00,52.9,44.5,29.62,West,270,5.8,5.8,73,0.00,,---,0.04,VWS V14.00,2013-03-18 18:23:00,
2013-03-18 13:29:00,53.6,44.8,29.62,NNE,22,13.0,13.0,72,0.00,,---,0.04,VWS V14.00,2013-03-18 18:29:00,
2013-03-18 13:34:00,54.0,44.0,29.62,NNE,22,10.8,10.8,69,0.00,,---,0.04,VWS V14.00,2013-03-18 18:34:00,
2013-03-18 13:39:00,53.8,43.5,29.62,North,0,8.3,10.1,68,0.00,,---,0.04,VWS V14.00,2013-03-18 18:39:00,
2013-03-18 13:44:00,54.0,44.0,29.62,NW,315,10.2,10.2,69,0.00,,---,0.04,VWS V14.00,2013-03-18 18:44:00,
2013-03-18 13:50:00,54.5,44.5,29.62,NW,315,9.1,9.1,69,0.00,,---,0.04,VWS V14.00,2013-03-18 18:50:00,
2013-03-18 13:56:00,55.8,45.8,29.62,NW,315,8.6,10.3,69,0.00,,---,0.04,VWS V14.00,2013-03-18 18:56:00,
2013-03-18 14:02:00,56.5,45.3,29.59,NE,45,10.2,10.2,66,0.00,,---,0.04,VWS V14.00,2013-03-18 19:02:00,
2013-03-18 14:07:00,56.7,44.6,29.59,NW,315,5.8,6.3,64,0.00,,---,0.04,VWS V14.00,2013-03-18 19:07:00,
2013-03-18 14:12:00,56.1,42.9,29.59,West,270,7.7,12.5,61,0.00,,---,0.04,VWS V14.00,2013-03-18 19:12:00,
2013-03-18 14:18:00,56.3,43.9,29.59,NW,315,11.9,11.9,63,0.00,,---,0.04,VWS V14.00,2013-03-18 19:18:00,
2013-03-18 14:23:00,56.5,44.0,29.59,NW,315,13.3,13.3,63,0.00,,---,0.04,VWS V14.00,2013-03-18 19:23:00,
2013-03-18 14:28:00,56.3,43.0,29.59,NNW,338,7.2,10.1,61,0.00,,---,0.04,VWS V14.00,2013-03-18 19:28:00,
2013-03-18 14:33:00,56.3,43.0,29.59,NW,315,9.1,9.1,61,0.00,,---,0.04,VWS V14.00,2013-03-18 19:33:00,
2013-03-18 14:39:00,56.5,43.6,29.59,WNW,292,8.0,8.0,62,0.00,,---,0.04,VWS V14.00,2013-03-18 19:39:00,
2013-03-18 14:44:00,56.5,43.2,29.59,NNW,338,4.6,9.8,61,0.00,,---,0.04,VWS V14.00,2013-03-18 19:44:00,
2013-03-18 14:49:00,56.8,44.4,29.62,West,270,8.0,8.0,63,0.00,,---,0.04,VWS V14.00,2013-03-18 19:49:00,
2013-03-18 14:54:00,56.7,43.4,29.62,North,0,10.5,10.5,61,0.00,,---,0.04,VWS V14.00,2013-03-18 19:54:00,
2013-03-18 15:00:00,56.5,43.6,29.62,NW,315,5.8,6.0,62,0.00,,---,0.04,VWS V14.00,2013-03-18 20:00:00,
2013-03-18 15:05:00,56.3,43.0,29.59,NNW,338,8.3,8.3,61,0.00,,---,0.04,VWS V14.00,2013-03-18 20:05:00,
2013-03-18 15:11:00,56.7,43.4,29.59,WNW,292,8.6,8.6,61,0.00,,---,0.04,VWS V14.00,2013-03-18 20:11:00,
2013-03-18 15:17:00,56.8,43.5,29.59,NW,315,9.1,9.1,61,0.00,,---,0.04,VWS V14.00,2013-03-18 20:17:00,
2013-03-18 15:22:00,56.8,43.5,29.59,NNW,338,6.0,6.0,61,0.00,,---,0.04,VWS V14.00,2013-03-18 20:22:00,
2013-03-18 15:28:00,56.7,43.4,29.59,WNW,292,4.9,7.8,61,0.00,,---,0.04,VWS V14.00,2013-03-18 20:28:00,
2013-03-18 15:33:00,56.7,43.4,29.59,North,0,8.6,10.1,61,0.00,,---,0.04,VWS V14.00,2013-03-18 20:33:00,
2013-03-18 15:39:00,56.8,44.0,29.59,North,0,8.8,8.8,62,0.00,,---,0.04,VWS V14.00,2013-03-18 20:39:00,
2013-03-18 15:45:00,57.2,42.6,29.59,WSW,248,9.4,9.4,58,0.00,,---,0.04,VWS V14.00,2013-03-18 20:45:00,
2013-03-18 15:50:00,57.2,41.7,29.62,North,0,7.7,9.8,56,0.00,,---,0.04,VWS V14.00,2013-03-18 20:50:00,
2013-03-18 15:55:00,57.2,41.2,29.62,North,0,10.8,11.0,55,0.00,,---,0.04,VWS V14.00,2013-03-18 20:55:00,
2013-03-18 16:01:00,57.0,40.1,29.62,North,0,10.8,10.8,53,0.00,,---,0.04,VWS V14.00,2013-03-18 21:01:00,
2013-03-18 16:06:00,56.8,39.9,29.62,NNW,338,8.6,9.8,53,0.00,,---,0.04,VWS V14.00,2013-03-18 21:06:00,
2013-03-18 16:11:00,57.0,41.5,29.62,North,0,6.9,6.9,56,0.00,,---,0.04,VWS V14.00,2013-03-18 21:11:00,
2013-03-18 16:17:00,57.4,41.4,29.62,North,0,5.5,5.6,55,0.00,,---,0.04,VWS V14.00,2013-03-18 21:17:00,
2013-03-18 16:22:00,57.6,41.5,29.62,NW,315,9.7,9.7,55,0.00,,---,0.04,VWS V14.00,2013-03-18 21:22:00,
2013-03-18 16:28:00,57.2,40.2,29.62,North,0,10.2,10.2,53,0.00,,---,0.04,VWS V14.00,2013-03-18 21:28:00,
2013-03-18 16:33:00,56.5,39.6,29.65,NW,315,4.1,8.7,53,0.00,,---,0.04,VWS V14.00,2013-03-18 21:33:00,
2013-03-18 16:39:00,56.8,39.9,29.65,North,0,7.7,7.7,53,0.00,,---,0.04,VWS V14.00,2013-03-18 21:39:00,
2013-03-18 16:45:00,57.9,40.9,29.65,NNW,338,7.7,8.1,53,0.00,,---,0.04,VWS V14.00,2013-03-18 21:45:00,
2013-03-18 16:50:00,57.7,40.2,29.65,NNE,22,8.8,12.3,52,0.00,,---,0.04,VWS V14.00,2013-03-18 21:50:00,
2013-03-18 16:55:00,56.8,38.9,29.65,NNW,338,14.1,14.1,51,0.00,,---,0.04,VWS V14.00,2013-03-18 21:55:00,
2013-03-18 17:00:00,55.9,38.1,29.65,North,0,11.6,11.6,51,0.00,,---,0.04,VWS V14.00,2013-03-18 22:00:00,
2013-03-18 17:06:00,55.0,37.3,29.65,NW,315,14.4,15.2,51,0.00,,---,0.04,VWS V14.00,2013-03-18 22:06:00,
2013-03-18 17:11:00,54.9,38.1,29.65,North,0,14.7,14.7,53,0.00,,---,0.04,VWS V14.00,2013-03-18 22:11:00,
2013-03-18 17:17:00,55.0,38.2,29.65,NNW,338,10.2,10.7,53,0.00,,---,0.04,VWS V14.00,2013-03-18 22:17:00,
2013-03-18 17:23:00,54.5,37.7,29.65,North,0,9.1,10.5,53,0.00,,---,0.04,VWS V14.00,2013-03-18 22:23:00,
2013-03-18 17:28:00,54.1,36.9,29.65,NNW,338,10.8,10.8,52,0.00,,---,0.04,VWS V14.00,2013-03-18 22:28:00,
2013-03-18 17:34:00,54.3,37.6,29.65,NW,315,14.4,14.4,53,0.00,,---,0.04,VWS V14.00,2013-03-18 22:34:00,
2013-03-18 17:39:00,54.3,37.6,29.65,NE,45,8.3,8.3,53,0.00,,---,0.04,VWS V14.00,2013-03-18 22:39:00,
2013-03-18 17:44:00,54.7,37.4,29.65,NW,315,13.6,13.6,52,0.00,,---,0.04,VWS V14.00,2013-03-18 22:44:00,
2013-03-18 17:49:00,55.0,37.3,29.68,NW,315,4.9,7.6,51,0.00,,---,0.04,VWS V14.00,2013-03-18 22:49:00,
2013-03-18 17:54:00,55.2,37.4,29.68,North,0,8.8,8.8,51,0.00,,---,0.04,VWS V14.00,2013-03-18 22:54:00,
2013-03-18 18:00:00,54.9,37.1,29.68,North,0,5.8,5.8,51,0.00,,---,0.04,VWS V14.00,2013-03-18 23:00:00,
2013-03-18 18:05:00,54.5,37.2,29.68,North,0,4.1,7.2,52,0.00,,---,0.04,VWS V14.00,2013-03-18 23:05:00,
2013-03-18 18:10:00,54.3,37.1,29.68,North,0,8.0,8.0,52,0.00,,---,0.04,VWS V14.00,2013-03-18 23:10:00,
2013-03-18 18:16:00,54.0,37.2,29.68,NE,45,4.9,4.9,53,0.00,,---,0.04,VWS V14.00,2013-03-18 23:16:00,
2013-03-18 18:21:00,53.8,37.1,29.68,NNE,22,7.2,7.2,53,0.00,,---,0.04,VWS V14.00,2013-03-18 23:21:00,
2013-03-18 18:27:00,53.4,37.2,29.68,NNW,338,6.3,6.3,54,0.00,,---,0.04,VWS V14.00,2013-03-18 23:27:00,
2013-03-18 18:33:00,53.1,37.3,29.68,NW,315,4.9,4.9,55,0.00,,---,0.04,VWS V14.00,2013-03-18 23:33:00,
2013-03-18 18:38:00,52.9,36.7,29.68,NW,315,6.0,6.0,54,0.00,,---,0.04,VWS V14.00,2013-03-18 23:38:00,
2013-03-18 18:44:00,52.5,36.8,29.68,North,0,3.0,3.1,55,0.00,,---,0.04,VWS V14.00,2013-03-18 23:44:00,
2013-03-18 18:49:00,52.3,36.7,29.68,North,0,4.4,4.4,55,0.00,,---,0.04,VWS V14.00,2013-03-18 23:49:00,
2013-03-18 18:54:00,52.0,36.3,29.68,NNW,338,4.4,4.4,55,0.00,,---,0.04,VWS V14.00,2013-03-18 23:54:00,
2013-03-18 19:00:00,51.6,36.9,29.68,NW,315,4.9,4.9,57,0.00,,---,0.04,VWS V14.00,2013-03-19 00:00:00,
2013-03-18 19:06:00,51.3,36.6,29.68,North,0,3.5,3.5,57,0.00,,---,0.04,VWS V14.00,2013-03-19 00:06:00,
2013-03-18 19:11:00,51.1,36.8,29.68,NNW,338,3.0,3.0,58,0.00,,---,0.04,VWS V14.00,2013-03-19 00:11:00,
2013-03-18 19:16:00,50.7,36.5,29.71,NNW,338,2.7,2.7,58,0.00,,---,0.04,VWS V14.00,2013-03-19 00:16:00,
2013-03-18 19:22:00,50.5,36.3,29.71,WNW,292,2.4,2.4,58,0.00,,---,0.04,VWS V14.00,2013-03-19 00:22:00,
2013-03-18 19:27:00,50.0,36.2,29.71,NW,315,2.4,2.4,59,0.00,,---,0.04,VWS V14.00,2013-03-19 00:27:00,
2013-03-18 19:33:00,50.0,36.2,29.71,NW,315,1.0,0.0,59,0.00,,---,0.04,VWS V14.00,2013-03-19 00:33:00,
2013-03-18 19:38:00,50.0,36.2,29.71,NW,315,1.0,0.0,59,0.00,,---,0.04,VWS V14.00,2013-03-19 00:38:00,
2013-03-18 19:44:00,50.0,36.2,29.71,NW,315,1.0,0.0,59,0.00,,---,0.04,VWS V14.00,2013-03-19 00:44:00,
2013-03-18 19:50:00,50.0,36.2,29.71,NW,315,1.0,0.0,59,0.00,,---,0.04,VWS V14.00,2013-03-19 00:50:00,
2013-03-18 19:55:00,50.0,36.2,29.71,NW,315,1.0,0.0,59,0.00,,---,0.04,VWS V14.00,2013-03-19 00:55:00,
2013-03-18 20:01:00,50.0,36.2,29.74,NW,315,1.0,0.0,59,0.00,,---,0.04,VWS V14.00,2013-03-19 01:01:00,
2013-03-18 20:07:00,46.8,36.4,29.74,NW,315,1.0,0.0,67,0.00,,---,0.04,VWS V14.00,2013-03-19 01:07:00,
2013-03-18 20:13:00,46.6,36.6,29.74,NW,315,1.0,1.1,68,0.00,,---,0.04,VWS V14.00,2013-03-19 01:13:00,
2013-03-18 20:19:00,46.8,36.8,29.74,NW,315,3.5,3.5,68,0.00,,---,0.04,VWS V14.00,2013-03-19 01:19:00,
2013-03-18 20:25:00,47.3,36.9,29.74,WNW,292,3.0,3.0,67,0.00,,---,0.04,VWS V14.00,2013-03-19 01:25:00,
2013-03-18 20:30:00,47.3,36.9,29.74,NW,315,3.8,3.8,67,0.00,,---,0.04,VWS V14.00,2013-03-19 01:30:00,
2013-03-18 20:36:00,47.3,36.5,29.74,WNW,292,3.5,3.5,66,0.00,,---,0.04,VWS V14.00,2013-03-19 01:36:00,
2013-03-18 20:41:00,47.3,36.2,29.74,West,270,2.4,3.6,65,0.00,,---,0.04,VWS V14.00,2013-03-19 01:41:00,
2013-03-18 20:46:00,47.3,36.2,29.74,NW,315,3.5,3.5,65,0.00,,---,0.04,VWS V14.00,2013-03-19 01:46:00,
2013-03-18 20:51:00,47.1,35.6,29.74,WNW,292,2.7,2.7,64,0.00,,---,0.04,VWS V14.00,2013-03-19 01:51:00,
2013-03-18 20:57:00,46.9,35.0,29.74,WNW,292,3.5,3.5,63,0.00,,---,0.04,VWS V14.00,2013-03-19 01:57:00,
2013-03-18 21:02:00,46.8,34.8,29.76,NNW,338,2.7,2.7,63,0.00,,---,0.04,VWS V14.00,2013-03-19 02:02:00,
2013-03-18 21:08:00,46.4,34.1,29.76,NNW,338,2.4,2.4,62,0.00,,---,0.04,VWS V14.00,2013-03-19 02:08:00,
2013-03-18 21:14:00,46.0,34.2,29.76,WNW,292,4.1,4.1,63,0.00,,---,0.04,VWS V14.00,2013-03-19 02:14:00,
2013-03-18 21:20:00,45.9,34.0,29.76,NW,315,4.4,4.4,63,0.00,,---,0.04,VWS V14.00,2013-03-19 02:20:00,
2013-03-18 21:26:00,46.0,34.2,29.76,NW,315,2.7,2.7,63,0.00,,---,0.04,VWS V14.00,2013-03-19 02:26:00,
2013-03-18 21:32:00,46.0,34.2,29.76,North,0,4.1,4.1,63,0.00,,---,0.04,VWS V14.00,2013-03-19 02:32:00,
2013-03-18 21:37:00,46.0,33.8,29.76,North,0,2.4,2.4,62,0.00,,---,0.04,VWS V14.00,2013-03-19 02:37:00,
2013-03-18 21:43:00,46.0,33.8,29.76,North,0,3.8,3.8,62,0.00,,---,0.04,VWS V14.00,2013-03-19 02:43:00,
2013-03-18 21:49:00,45.9,33.6,29.76,WNW,292,4.4,4.4,62,0.00,,---,0.04,VWS V14.00,2013-03-19 02:49:00,
2013-03-18 21:54:00,45.9,33.2,29.76,WNW,292,3.0,3.0,61,0.00,,---,0.04,VWS V14.00,2013-03-19 02:54:00,
2013-03-18 22:00:00,45.9,33.2,29.76,NW,315,4.6,4.6,61,0.00,,---,0.04,VWS V14.00,2013-03-19 03:00:00,
2013-03-18 22:05:00,45.5,32.8,29.79,NW,315,3.5,3.5,61,0.00,,---,0.04,VWS V14.00,2013-03-19 03:05:00,
2013-03-18 22:11:00,45.1,32.1,29.79,WNW,292,1.0,1.1,60,0.00,,---,0.04,VWS V14.00,2013-03-19 03:11:00,
2013-03-18 22:17:00,45.0,31.9,29.79,WNW,292,2.1,2.1,60,0.00,,---,0.04,VWS V14.00,2013-03-19 03:17:00,
2013-03-18 22:23:00,44.6,32.0,29.79,NW,315,3.8,3.8,61,0.00,,---,0.04,VWS V14.00,2013-03-19 03:23:00,
2013-03-18 22:28:00,44.1,31.9,29.79,NW,315,3.5,3.5,62,0.00,,---,0.04,VWS V14.00,2013-03-19 03:28:00,
2013-03-18 22:33:00,43.9,31.7,29.79,NW,315,3.5,3.5,62,0.00,,---,0.04,VWS V14.00,2013-03-19 03:33:00,
2013-03-18 22:38:00,43.9,31.7,29.79,WNW,292,3.5,3.5,62,0.00,,---,0.04,VWS V14.00,2013-03-19 03:38:00,
2013-03-18 22:44:00,44.1,31.9,29.79,NW,315,4.4,4.4,62,0.00,,---,0.04,VWS V14.00,2013-03-19 03:44:00,
2013-03-18 22:49:00,44.2,32.1,29.79,WNW,292,2.7,2.7,62,0.00,,---,0.04,VWS V14.00,2013-03-19 03:49:00,
2013-03-18 22:54:00,44.2,32.1,29.79,WNW,292,2.7,2.7,62,0.00,,---,0.04,VWS V14.00,2013-03-19 03:54:00,
2013-03-18 22:59:00,44.2,32.1,29.79,NW,315,2.7,2.7,62,0.00,,---,0.04,VWS V14.00,2013-03-19 03:59:00,
2013-03-18 23:01:00,44.2,32.1,29.79,NW,315,3.0,3.0,62,0.00,,---,0.04,VWS V14.00,2013-03-19 04:01:00,
2013-03-18 23:02:00,44.1,31.5,29.79,WNW,292,3.0,3.0,61,0.00,,---,0.04,VWS V14.00,2013-03-19 04:02:00,
2013-03-18 23:03:00,44.1,31.9,29.79,WNW,292,2.1,2.1,62,0.00,,---,0.04,VWS V14.00,2013-03-19 04:03:00,
2013-03-18 23:07:00,43.9,31.3,29.79,WNW,292,2.1,2.1,61,0.00,,---,0.04,VWS V14.00,2013-03-19 04:07:00,
2013-03-18 23:12:00,43.5,31.4,29.79,NW,315,1.0,0.0,62,0.00,,---,0.04,VWS V14.00,2013-03-19 04:12:00,
2013-03-18 23:18:00,43.0,30.9,29.79,NW,315,1.0,0.0,62,0.00,,---,0.04,VWS V14.00,2013-03-19 04:18:00,
2013-03-18 23:24:00,42.4,30.8,29.79,NW,315,1.0,0.0,63,0.00,,---,0.04,VWS V14.00,2013-03-19 04:24:00,
2013-03-18 23:29:00,42.3,31.0,29.79,NW,315,1.0,0.0,64,0.00,,---,0.04,VWS V14.00,2013-03-19 04:29:00,
2013-03-18 23:34:00,41.7,30.5,29.82,NW,315,1.0,0.0,64,0.00,,---,0.04,VWS V14.00,2013-03-19 04:34:00,
2013-03-18 23:39:00,41.5,30.7,29.82,NW,315,1.0,0.0,65,0.00,,---,0.04,VWS V14.00,2013-03-19 04:39:00,
2013-03-18 23:44:00,41.4,30.9,29.82,NW,315,1.0,0.0,66,0.00,,---,0.04,VWS V14.00,2013-03-19 04:44:00,
2013-03-18 23:50:00,41.2,30.7,29.82,NW,315,1.0,0.0,66,0.00,,---,0.04,VWS V14.00,2013-03-19 04:50:00,
2013-03-18 23:55:00,41.0,30.9,29.82,NW,315,1.0,0.0,67,0.00,,---,0.04,VWS V14.00,2013-03-19 04:55:00,